Regional Weather Roundup
Issued by NWS

Home | Current Version | Previous Version | Graphics & Text | Print | Product List | Glossary On
Versions: 1 2 3 4 5 6 7 8 9 10 11 12 13 14 15 16 17 18 19 20 21 22 23 24 25 26 27 28 29 30 31 32 33 34 35 36 37 38 39 40 41 42 43 44 45 46 47 48 49 50
000
ASUS44 KMEG 270110
RWRTN
TENNESSEE HOURLY STATE WEATHER ROUNDUP
NATIONAL WEATHER SERVICE MEMPHIS TN
800 PM CDT MON JUN 26 2017

TNZ002-004-019-021-049-052-054-088>092-270200-
WEST TENNESSEE

CITY           SKY/WX    TMP DP  RH WIND       PRES   REMARKS
MEMPHIS INTL   CLOUDY    80  59  48 NW8       30.07R
NWS MEMPHIS      N/A     78 N/A N/A MISG        N/A
JACKSON        CLEAR     77  59  53 N7        30.09R
SOMERVILLE     CLEAR     75  64  69 CALM      30.08R
COVINGTON      MOCLDY    77  64  65 MISG      30.08S
UNION CITY     CLOUDY    73  55  53 N8        30.09F
BOLIVAR        CLEAR     77  61  57 CALM      30.08R
HUNTINGDON     CLEAR     73  59  60 CALM      30.09S
LEXINGTON      CLEAR     72  59  64 N5        30.09R
SELMER         CLEAR     75  64  69 CALM      30.08S
SAVANNAH       CLEAR     73  64  73 CALM      30.07S
$$

TNZ008-025-027-028-033-062-065-066-270200-
NORTH MIDDLE TENNESSEE

CITY           SKY/WX    TMP DP  RH WIND       PRES   REMARKS
NASHVILLE      PTCLDY    75  51  43 VRB7      30.10R
PORTLAND       CLEAR     70  55  60 CALM      30.10S
CLARKSVILLE    CLOUDY    71  52  50 N5        30.10S
SMYRNA         PTCLDY    74  56  53 N7        30.10S
COOKEVILLE     CLEAR     66  59  77 CALM      30.09F
GALLATIN       CLEAR     72  52  49 N5        30.12S
CROSSVILLE     CLEAR     67  52  58 CALM      30.13F
$$

TNZ061-075-076-078-094-096-097-270200-
SOUTH MIDDLE TENNESSEE

CITY           SKY/WX    TMP DP  RH WIND       PRES   REMARKS
FAYETTEVILLE   CLEAR     75  57  53 CALM      30.09S
TULLAHOMA        N/A     72  59  64 NW3       30.11R
WINCHESTER     CLEAR     72  61  68 CALM      30.10S
MCMINNVILLE    CLEAR     70  59  68 CALM      30.10S
COLUMBIA       CLEAR     75  57  53 CALM      30.07S
SHELBYVILLE    CLEAR     73  57  56 NW6       30.09R
$$

TNZ017-018-042-046-047-270200-
NORTHEAST TENNESSEE

CITY           SKY/WX    TMP DP  RH WIND       PRES   REMARKS
TRI CITIES     PTCLDY    70  56  61 SW6       30.09S
ELIZABETHTON   CLEAR     64  59  82 CALM      30.10S
$$

TNZ012-013-036-069-073-074-270200-
CENTRAL EAST TENNESSEE

CITY           SKY/WX    TMP DP  RH WIND       PRES   REMARKS
KNOXVILLE      PTCLDY    73  55  53 W3        30.07F
OAK RIDGE      CLEAR     71  55  56 CALM      30.09F
DOWNTOWN KNOXV CLEAR     68  61  77 CALM      30.07S
GATLINBURG     CLEAR     72  55  56 CALM      30.08S
MORRISTOWN     PTCLDY    72  57  60 CALM      30.08S
JACKSBORO      CLEAR     66  54  63 CALM      30.13S
$$

TNZ083-085-099-270200-
SOUTHEAST TENNESSEE

CITY           SKY/WX    TMP DP  RH WIND       PRES   REMARKS
CHATTANOOGA    CLOUDY    78  58  49 CALM      30.08S
$$

SKY/WX REPORTED AS FAIR MEANS FEW OR NO CLOUDS BELOW
12 THOUSAND FEET.




USA.gov is the U.S. government's official web portal to all federal, state and local government web resources and services.